Flag for U.S.A. Weather past 2 weeks in Dickinson, North Dakota, U.S.A.

Now
72 °F

Sunny.


Feels Like: 77 °F
Forecast: 42 / 74 °F
Wind: 12 mph from Southeast

Location: Dickinson Municipal Airport

Current Time: Sep 17, 2014 at 4:09:14 PM

Latest Report: Sep 17, 2014 at 2:56 PM


Visibility: 10 mi

Pressure: 29.94 "Hg

Humidity: 40%

Dew point: 46 °F

Location of DickinsonLocation

Historic Weather in Dickinson — Graph

°F

Dickinson temperature yesterday

Maximum temperature yesterday: 74 °F (at 2:56 PM)
Minimum temperature yesterday: 38 °F (at 6:56 AM)
Average temperature yesterday: 56 °F

Past Weeks' High & Low Weather Summary

 TemperatureHumidityPressure
High83 °F (Sep 7, 2:56 PM)97% (Sep 9, 6:04 AM)30.56 "Hg (Sep 9, 6:04 AM)
Low30 °F (Sep 14, 4:56 AM)29% (Sep 6, 1:56 PM)29.53 "Hg (Sep 3, 6:56 PM)
Average53 °F67%30.06 "Hg
* Reported Sep 2 2:56 PM — Sep 17 2:56 PM, Dickinson, Weather by CustomWeather, © 2014

Note: Actual official high and low records may vary slightly from our data, if they occured in-between our weather recording intervals... More about our weather records

Advertising

Dickinson weather history for previous 24 hours

 ConditionsComfort  
Time TempWeatherWind HumidityBarometerVisibility
2:56 PM
Sep 17
72 °FSunny.12 mph40%29.94 "Hg10 mi
1:56 PM68 °FPassing clouds.14 mph47%29.95 "Hg10 mi
12:56 PM68 °FPassing clouds.13 mph45%29.95 "Hg10 mi
11:56 AM67 °FSunny.12 mph44%29.96 "Hg10 mi
10:56 AM67 °FSunny.10 mph42%29.96 "Hg10 mi
9:56 AM65 °FSunny.8 mph56%29.96 "Hg10 mi
8:56 AM58 °FSunny.5 mph72%29.96 "Hg10 mi
7:56 AM49 °FSunny.No wind86%29.96 "Hg10 mi
6:56 AM46 °FClear.No wind86%29.95 "Hg10 mi
5:56 AM44 °FClear.No wind85%29.93 "Hg10 mi
4:56 AM42 °FClear.No wind85%29.92 "Hg10 mi
3:56 AM44 °FClear.No wind85%29.92 "Hg10 mi
2:56 AM45 °FClear.3 mph86%29.92 "Hg10 mi
1:56 AM44 °FClear.No wind82%29.92 "Hg10 mi
12:56 AM50 °FClear.No wind71%29.91 "Hg10 mi
11:56 PM
Sep 16
51 °FClear.3 mph71%29.92 "Hg10 mi
10:56 PM49 °FClear.5 mph80%29.92 "Hg10 mi
9:56 PM48 °FClear.5 mph77%29.93 "Hg10 mi
8:56 PM54 °FClear.6 mph69%29.93 "Hg10 mi
7:56 PM55 °FSunny.7 mph69%29.93 "Hg10 mi
6:56 PM61 °FSunny.6 mph58%29.93 "Hg10 mi
5:56 PM70 °FSunny.5 mph44%29.92 "Hg10 mi
4:56 PM73 °FSunny.7 mph40%29.92 "Hg10 mi
Weather by CustomWeather, © 2014

See weather overviewHow to use our weather pages